Find Starlink 11476

NORAD ID: 62228 Int'l Des: 2024-231 Owner: SPXS Country: US Constellation: starlink operational
別名: STARLINK-11476 [DTC] celestrak
LEOCIRCULAR

現在のビュー

3D地球を読み込み中...

About Starlink 11476

Starlink 11476 (NORAD 62228) is a starlink constellation satellite (v2 mini d2c) launched Dec 5, 2024 by SPXS of US. It operates in LEO, CIRCULAR orbit with a mass of 960.00 kg.

次回通過

Passes for default location (London). Set your location on the main map for personalized predictions.

高度履歴

Loading altitude history...

軌道要素

1 62228U 24231L 26264.20341702 .00128660 00000-0 10502-2 0 9994
2 62228 53.1577 217.1197 0001225 57.3471 302.7665 15.69715695104137
Epoch: Sep 21, 2026 • Age: 7 hours

現在のステータス

高度 365.4 km
遠地点 / 近地点 N/A
速度 7.70 km/s
衛星直下点 53.24°N, 138.71°E
打ち上げ日 Dec 5, 2024
運用期間 1.7 years
タイプ internet

技術仕様

分類 Payload
質量 960.00 kg
乾燥質量 910.00 kg
長さ 0.30 m
スパン 29.00 m
形状 ? Box + pan
製造者 SPXS
バスタイプ Starlink V2MD
フェーズステータス In Orbit
所有者/国 SPXS/US

Most Searched